Cartersville, GA

5:54 PM EDT on April 25, 2017 (GMT -0400)
Cartersville

Weather History for KVPC - June, 2013

Change the Weather History Date:

Sunday, June 16, 2013

  Actual Average Record
Temperature  
Mean Temperature 74 °F 75 °F  
Max Temperature 87 °F 87 °F 94 °F (2015)
Min Temperature 60 °F 63 °F 52 °F (2002)
Cooling Degree Days 9 10  
Month to date cooling degree days 173 136  
Year to date cooling degree days 298 285  
Since 1 June cooling degree days 173 136  
Growing Degree Days 22 (Base 50)    
Moisture  
Dew Point 69 °F    
Average Humidity 80    
Maximum Humidity 100    
Minimum Humidity 59    
Precipitation  
Precipitation 1.33 in 0.12 in 3.02 in (1949)
Month to date precipitation 4.07 1.84  
Year to date precipitation 15.88 24.00  
Sea Level Pressure  
Sea Level Pressure 30.07 in    
Wind  
Wind Speed 2 mph (SE)    
Max Wind Speed 13 mph    
Max Gust Speed 20 mph    
Visibility 8 miles    
Events Rain , Thunderstorm    
T = Trace of Precipitation, MM = Missing Value Source: NWS Daily Summary

Daily Weather History Graph

Daily Weather History Graph

Search for Another Location

Airport or City:

Trip Planner

Search our weather history database for the weather conditions in past years. The results will help you decide how hot, cold, wet, or windy it might be!

Date:

Astronomy

Jun. 16, 2013 Rise Set
Actual Time 6:27 AM EDT 8:52 PM EDT
Civil Twilight 5:58 AM EDT 9:22 PM EDT
Nautical Twilight 5:22 AM EDT 9:58 PM EDT
Astronomical Twilight 4:42 AM EDT 10:37 PM EDT
Moon 1:43 PM EDT (6/16) 1:14 AM EDT (6/16)
Length of Visible Light 15h 24m
Length of Day
14h 25m
Waxing Crescent, 49% of the Moon is Illuminated
Jun 16
Waxing Crescent
Jun 16
First Quarter
Jun 23
Full
Jun 30
Last Quarter
Jul 8
New

Hourly Weather History & Observations

Time (EDT) Temp. Heat Index Dew Point Humidity Pressure Visibility Wind Dir Wind Speed Gust Speed Precip Events Conditions
12:53 AM 66.0 °F - 63.0 °F 90% 30.07 in 10.0 mi Calm Calm - N/A   Clear
1:53 AM 66.9 °F - 64.0 °F 90% 30.08 in 10.0 mi Calm Calm - N/A   Clear
2:53 AM 63.0 °F - 63.0 °F 100% 30.07 in 8.0 mi Calm Calm - N/A   Clear
3:53 AM 62.1 °F - 61.0 °F 96% 30.06 in 7.0 mi Calm Calm - N/A   Clear
4:53 AM 62.1 °F - 61.0 °F 96% 30.07 in 9.0 mi Calm Calm - N/A   Clear
5:53 AM 60.1 °F - 60.1 °F 100% 30.09 in 7.0 mi Calm Calm - N/A   Clear
6:53 AM 63.0 °F - 62.1 °F 97% 30.10 in 9.0 mi Calm Calm - N/A   Scattered Clouds
7:53 AM 66.9 °F - 64.9 °F 93% 30.12 in 8.0 mi Calm Calm - N/A   Clear
8:53 AM 72.0 °F - 64.9 °F 78% 30.13 in 10.0 mi Calm Calm - N/A   Clear
9:53 AM 75.0 °F - 66.9 °F 76% 30.13 in 10.0 mi SSE 5.8 mph - N/A   Clear
10:53 AM 79.0 °F - 68.0 °F 69% 30.11 in 10.0 mi Calm Calm - N/A   Clear
11:53 AM 82.0 °F 85.5 °F 69.1 °F 65% 30.10 in 10.0 mi SSE 5.8 mph - N/A   Clear
12:53 PM 82.0 °F 84.9 °F 68.0 °F 62% 30.08 in 10.0 mi South 6.9 mph - N/A   Scattered Clouds
1:53 PM 84.0 °F 87.8 °F 69.1 °F 61% 30.06 in 10.0 mi South 4.6 mph - N/A   Partly Cloudy
2:53 PM 82.9 °F 87.0 °F 70.0 °F 65% 30.04 in 10.0 mi South 5.8 mph - N/A   Overcast
3:53 PM 84.0 °F 87.0 °F 68.0 °F 58% 30.03 in 10.0 mi Calm Calm - N/A   Mostly Cloudy
4:24 PM 82.4 °F 87.2 °F 71.6 °F 70% 30.07 in 8.0 mi Variable 5.8 mph - 0.00 in Rain , Thunderstorm Light Rain
4:48 PM 73.4 °F - 71.6 °F 94% 30.07 in 2.0 mi Variable 3.5 mph - 0.07 in Rain , Thunderstorm Rain
4:53 PM 73.0 °F - 72.0 °F 96% 30.04 in 2.5 mi Calm Calm - 0.07 in Rain , Thunderstorm Light Rain
5:01 PM 73.4 °F - 71.6 °F 94% 30.05 in 7.0 mi Calm Calm - 0.00 in Rain Light Rain
5:53 PM 82.0 °F 87.9 °F 73.9 °F 76% 30.01 in 10.0 mi Calm Calm - 0.00 in   Clear
6:53 PM 82.9 °F 90.2 °F 75.0 °F 77% 29.99 in 10.0 mi NE 3.5 mph - N/A   Clear
7:53 PM 79.0 °F - 75.9 °F 90% 30.00 in 9.0 mi Calm Calm - N/A   Scattered Clouds
8:53 PM 75.9 °F - 75.0 °F 97% 30.00 in 8.0 mi Calm Calm - N/A   Partly Cloudy
9:30 PM 77.0 °F - 75.2 °F 94% 30.05 in 9.0 mi Calm Calm - N/A Thunderstorm Mostly Cloudy
9:45 PM 75.2 °F - 73.4 °F 94% 30.05 in 9.0 mi Calm Calm - N/A   Mostly Cloudy
9:53 PM 75.9 °F - 73.9 °F 94% 30.02 in 9.0 mi NW 4.6 mph - N/A   Overcast
10:00 PM 75.2 °F - 71.6 °F 89% 30.07 in 10.0 mi NNW 9.2 mph - N/A Thunderstorm Overcast
10:19 PM 71.6 °F - 68.0 °F 88% 30.10 in 10.0 mi Variable 3.5 mph - 0.01 in Rain , Thunderstorm Light Thunderstorms and Rain
10:27 PM 69.8 °F - 69.8 °F 100% 30.10 in 1.8 mi North 8.1 mph - 0.17 in Rain , Thunderstorm Heavy Thunderstorms and Rain
10:37 PM 69.8 °F - 68.0 °F 94% 30.13 in 1.0 mi Variable 5.8 mph - 0.44 in Rain , Thunderstorm Heavy Thunderstorms and Rain
10:39 PM 69.8 °F - 69.8 °F 100% 30.13 in 0.8 mi Variable 5.8 mph - 0.62 in Rain , Thunderstorm Heavy Thunderstorms and Rain
10:53 PM 68.0 °F - 68.0 °F 100% 30.06 in 1.0 mi Calm Calm - 1.11 in Rain , Thunderstorm Heavy Thunderstorms and Rain
10:57 PM 69.8 °F - 69.8 °F 100% 30.10 in 2.5 mi Calm Calm - 0.01 in Rain , Thunderstorm Light Thunderstorms and Rain
11:01 PM 69.8 °F - 69.8 °F 100% 30.09 in 6.0 mi Calm Calm - 0.01 in Rain , Thunderstorm Light Thunderstorms and Rain
11:53 PM 69.1 °F - 69.1 °F 100% 30.07 in 8.0 mi SE 4.6 mph - 0.13 in Rain , Thunderstorm Light Thunderstorms and Rain